STARLINK-11173, 60192

Orbit data source: Space-Track

STARLINK-11173, 60192 is a payload satellite owned by SpaceX/Seattle (US) in LEO that was launched on Wed, 03 Jul 2024 UTC via an FALCON 9 launch vehicle from the Air Force Eastern Test Range (AFETR). Payload-class satellites include a variety of spacecraft equipped with specific instruments for various scientific and technological missions. These include communications satellites like Starlink; space stations such as the ISS; scientific satellites like the Hubble; Earth observation satellites from companies like Planet Labs, Umbra, and HawkEye 360; GPS; miniature CubeSats for education and research; and military/defense satellites.

Not visible in the next 10 days
Identifier
60192, 2024-124K
Orbit
LEO
Last TLE update
15 hours ago
Origin
Manufacturer
SpaceX/Seattle
Mission
Operational Commercial Communications
Bus & Motor
STARLINK V2M, Unknown motor
Mass
730 kg wet, ~700 kg dry
Launch date (UTC)
2024-07-03 (1 year ago)
Launch vehicle
FALCON 9
Launch site
Air Force Eastern Test Range (AFETR)
Object type
Payload
Rocket body
Debris
Shape & HBR
Box + 2 Pan, 29 m
Radar Cross Section
36.964 m², Large (>1 m²)

Expand to show TLE details & history

TLE from 15 hours ago
0 STARLINK-11173
1 60192U 24124K   25181.82356181 -.00001678  00000-0 -90039-5 0  9992
2 60192  53.1585 323.0103 0000672  40.5628 319.5440 15.69703206 56971
Epoch: 2025-06-30T19:45Z
TLE epoch observation values (Epoch: 2025-06-30T19:45:55.74Z)
Latitude
-0.00001°
Longitude
107.40021°
Altitude
360.317 km
Speed
7.695 km/s
True Right ascension
21h 32m 02s
True Declination
0° 00' 00"
Sunlit
Object was in full shadow at epoch
Visualization orbit readout
Latitude
-36.71347°
Longitude
-41.87223°
Altitude
372.016 km
Speed
7.686 km/s
Apparent Right ascension
10h 53m 29s
Apparent Declination
-38° 35' 45"
Sunlit
Object is in daylight
Visualization observer readout
Local Sidereal Time
22:07:35
Azimuth
274.783° WNW
Elevation
-81.022°
Doppler factor
1
Orbital elements
Apogee altitude
360.46 km
Perigee altitude
359.554 km
Semi-major axis
6,738.144 km
Eccentricity
0.00007
Inclination
53.1585°
RAAN
323.0103°
Arg. of periapsis
40.5628°
True anomaly
Unknown
Mean anomaly
319.544°
Eccentric anomaly
Unknown
Mean motion
3.92403 °/min
Orbital period
91.74 mins
BSTAR
-0.0000090039
Loading maneuver chart data...
Loading SW <> Apogee altitude chart data...
Loading historical data...
Loading historical data...
Loading historical data...
Loading historical data...
Loading historical data...
Loading historical data...
Loading historical data...

STARLINK-11173 Visibility

Observer location: undefined°, undefined°

STARLINK-11173 is likely not visible in the next few days
Span
Click to sort rows by Start time (UTC) header in descending order
Start Az.
Max El. time (UTC)
Max El. Az.
Max El.
End time (UTC)
End Az.
|